LGS2021 EBBR-LFRS

Flight info

Callsign LGS2021
Flight time 1h 3m
Altitude 37000
Route CIV N872 LESDO DCT KOVIN DCT NIDUV DCT KIHVI UN872 DIDAK A5 VALAX
Aircraft B738/M-SDE2E3FGHIRWXY/LB1

Departure

Time 2026-05-05 20:55
Airport Brussels Airport (EBBR)

Arrival

Time 2026-05-05 21:58
Airport Nantes Atlantique Airport (LFRS)
Time Latitude Longitude Altitude Speed Heading
2026-05-05 20:32 50.90501 4.48895 120 ft 0 kts 155°
2026-05-05 20:47 50.90502 4.48894 120 ft 2 kts 155°
2026-05-05 20:47 50.90526 4.48879 115 ft 4 kts 166°
2026-05-05 20:47 50.90553 4.48874 117 ft 4 kts 183°
2026-05-05 20:47 50.90579 4.48882 116 ft 4 kts 207°
2026-05-05 20:48 50.90597 4.48907 115 ft 3 kts 243°
2026-05-05 20:48 50.90598 4.48911 115 ft 1 kts 245°
2026-05-05 20:50 50.90597 4.48907 115 ft 3 kts 245°
2026-05-05 20:50 50.90556 4.48766 119 ft 24 kts 245°
2026-05-05 20:50 50.90481 4.48506 119 ft 25 kts 245°
2026-05-05 20:50 50.90410 4.48260 118 ft 24 kts 245°
2026-05-05 20:51 50.90343 4.48029 119 ft 23 kts 245°
2026-05-05 20:51 50.90279 4.47804 120 ft 22 kts 245°
2026-05-05 20:51 50.90216 4.47587 118 ft 21 kts 245°
2026-05-05 20:51 50.90155 4.47377 122 ft 21 kts 245°
2026-05-05 20:52 50.90096 4.47174 123 ft 20 kts 245°
2026-05-05 20:52 50.90039 4.46975 123 ft 20 kts 245°
2026-05-05 20:52 50.89982 4.46780 127 ft 19 kts 245°
2026-05-05 20:52 50.89944 4.46594 132 ft 16 kts 285°
2026-05-05 20:53 50.90006 4.46572 131 ft 10 kts 34°
2026-05-05 20:53 50.90063 4.46636 126 ft 10 kts 35°
2026-05-05 20:53 50.90119 4.46699 130 ft 10 kts 35°
2026-05-05 20:53 50.90176 4.46763 125 ft 11 kts 36°
2026-05-05 20:54 50.90238 4.46833 125 ft 11 kts 35°
2026-05-05 20:54 50.90288 4.46922 127 ft 11 kts 63°
2026-05-05 20:54 50.90354 4.47155 126 ft 54 kts 66°
2026-05-05 20:54 50.90612 4.48059 117 ft 124 kts 65°
2026-05-05 20:55 50.91055 4.49579 211 ft 172 kts 65°
2026-05-05 20:55 50.91506 4.51318 1139 ft 163 kts 65°
2026-05-05 20:55 50.91940 4.52822 2293 ft 145 kts 50°
2026-05-05 20:55 50.92825 4.53713 2832 ft 168 kts 23°
2026-05-05 20:56 50.94085 4.54077 3100 ft 202 kts 359°
2026-05-05 20:56 50.95482 4.53213 3391 ft 234 kts 324°
2026-05-05 20:56 50.96355 4.50965 3997 ft 252 kts 284°
2026-05-05 20:56 50.96567 4.48189 4894 ft 253 kts 278°
2026-05-05 20:57 50.96748 4.45407 5816 ft 254 kts 277°
2026-05-05 20:57 50.96765 4.42586 6615 ft 261 kts 258°
2026-05-05 20:57 50.95966 4.40020 7423 ft 262 kts 230°
2026-05-05 20:57 50.94684 4.37932 8210 ft 266 kts 223°
2026-05-05 20:58 50.93327 4.35930 9088 ft 266 kts 223°
2026-05-05 20:58 50.91970 4.33962 9867 ft 271 kts 222°
2026-05-05 20:58 50.90574 4.31933 10589 ft 274 kts 222°
2026-05-05 20:58 50.89161 4.29871 11299 ft 279 kts 222°
2026-05-05 20:59 50.87727 4.27771 12028 ft 282 kts 222°
2026-05-05 20:59 50.86282 4.25648 12756 ft 286 kts 222°
2026-05-05 20:59 50.84813 4.23486 13505 ft 289 kts 221°
2026-05-05 20:59 50.83339 4.21313 14237 ft 290 kts 221°
2026-05-05 21:00 50.81861 4.19136 14960 ft 290 kts 221°
2026-05-05 21:00 50.80389 4.16967 15733 ft 289 kts 221°
2026-05-05 21:00 50.78914 4.14794 16391 ft 294 kts 221°
2026-05-05 21:00 50.77362 4.12513 16574 ft 315 kts 222°
2026-05-05 21:01 50.75707 4.10081 16813 ft 333 kts 222°
2026-05-05 21:01 50.73991 4.07560 17372 ft 340 kts 222°
2026-05-05 21:01 50.72262 4.05021 18139 ft 340 kts 222°
2026-05-05 21:01 50.70521 4.02464 18733 ft 344 kts 222°
2026-05-05 21:02 50.68758 3.99881 19259 ft 348 kts 222°
2026-05-05 21:02 50.66971 3.97265 19831 ft 352 kts 221°
2026-05-05 21:02 50.65167 3.94628 20391 ft 356 kts 221°
2026-05-05 21:02 50.63344 3.91963 20949 ft 359 kts 221°
2026-05-05 21:03 50.61502 3.89275 21495 ft 363 kts 221°
2026-05-05 21:03 50.59633 3.86554 22023 ft 368 kts 221°
2026-05-05 21:03 50.57757 3.83870 22562 ft 371 kts 217°
2026-05-05 21:03 50.55539 3.81797 23074 ft 372 kts 202°
2026-05-05 21:04 50.53149 3.80186 23579 ft 375 kts 201°
2026-05-05 21:04 50.50760 3.78635 24019 ft 378 kts 201°
2026-05-05 21:04 50.48295 3.77023 24499 ft 380 kts 201°
2026-05-05 21:04 50.45856 3.75403 24970 ft 382 kts 201°
2026-05-05 21:05 50.43400 3.73749 25425 ft 385 kts 202°
2026-05-05 21:05 50.40934 3.72076 25869 ft 387 kts 202°
2026-05-05 21:05 50.38458 3.70392 26305 ft 389 kts 201°
2026-05-05 21:05 50.35969 3.68703 26743 ft 391 kts 201°
2026-05-05 21:06 50.33463 3.67004 27178 ft 393 kts 201°
2026-05-05 21:06 50.30945 3.65300 27604 ft 395 kts 201°
2026-05-05 21:06 50.28412 3.63587 28017 ft 398 kts 201°
2026-05-05 21:06 50.25857 3.61860 28433 ft 400 kts 201°
2026-05-05 21:07 50.23303 3.60135 28827 ft 402 kts 201°
2026-05-05 21:07 50.20728 3.58399 29202 ft 404 kts 201°
2026-05-05 21:07 50.18132 3.56652 29571 ft 407 kts 201°
2026-05-05 21:07 50.15563 3.54929 29923 ft 409 kts 201°
2026-05-05 21:08 50.12943 3.53175 30220 ft 411 kts 201°
2026-05-05 21:08 50.10274 3.51391 30541 ft 413 kts 201°
2026-05-05 21:08 50.07663 3.49646 30839 ft 414 kts 201°
2026-05-05 21:08 50.05008 3.47874 31129 ft 416 kts 201°
2026-05-05 21:09 50.02342 3.46096 31413 ft 418 kts 201°
2026-05-05 21:09 49.99657 3.44307 31698 ft 420 kts 201°
2026-05-05 21:09 49.96970 3.42519 31970 ft 421 kts 201°
2026-05-05 21:09 49.94274 3.40727 32242 ft 423 kts 200°
2026-05-05 21:10 49.91554 3.38921 32507 ft 425 kts 200°
2026-05-05 21:10 49.88830 3.37115 32763 ft 426 kts 200°
2026-05-05 21:10 49.86101 3.35306 33007 ft 428 kts 200°
2026-05-05 21:10 49.83359 3.33492 33260 ft 429 kts 200°
2026-05-05 21:11 49.80604 3.31673 33491 ft 431 kts 200°
2026-05-05 21:11 49.77839 3.29846 33720 ft 433 kts 200°
2026-05-05 21:11 49.75066 3.28011 33916 ft 434 kts 200°
2026-05-05 21:11 49.72281 3.26170 34083 ft 436 kts 201°
2026-05-05 21:12 49.69481 3.24320 34235 ft 438 kts 201°
2026-05-05 21:12 49.66674 3.22468 34390 ft 440 kts 201°
2026-05-05 21:12 49.63847 3.20606 34551 ft 442 kts 201°
2026-05-05 21:12 49.61012 3.18740 34710 ft 444 kts 201°
2026-05-05 21:13 49.58170 3.16872 34854 ft 445 kts 201°
2026-05-05 21:13 49.55314 3.14997 35006 ft 447 kts 201°
2026-05-05 21:13 49.52458 3.13093 35154 ft 449 kts 205°
2026-05-05 21:13 49.49806 3.10537 35274 ft 454 kts 217°
2026-05-05 21:14 49.47540 3.07236 35429 ft 457 kts 227°
2026-05-05 21:14 49.45692 3.03247 35576 ft 460 kts 238°
2026-05-05 21:14 49.44125 2.98963 35824 ft 459 kts 239°
2026-05-05 21:14 49.42590 2.94661 36061 ft 458 kts 239°
2026-05-05 21:15 49.41050 2.90383 36261 ft 458 kts 239°
2026-05-05 21:15 49.39488 2.86126 36457 ft 458 kts 239°
2026-05-05 21:15 49.37912 2.81892 36672 ft 457 kts 238°
2026-05-05 21:15 49.36330 2.77670 36855 ft 456 kts 238°
2026-05-05 21:16 49.33179 2.69189 36853 ft 458 kts 239°
2026-05-05 21:16 49.30654 2.61994 36852 ft 457 kts 240°
2026-05-05 21:17 49.28844 2.56786 36855 ft 456 kts 240°
2026-05-05 21:17 49.25841 2.48234 36864 ft 455 kts 240°
2026-05-05 21:18 49.22818 2.39704 36858 ft 455 kts 240°
2026-05-05 21:18 49.19796 2.31211 36851 ft 455 kts 239°
2026-05-05 21:19 49.16709 2.22781 36856 ft 455 kts 239°
2026-05-05 21:19 49.13590 2.14378 36870 ft 455 kts 239°
2026-05-05 21:20 49.10473 2.05960 36858 ft 455 kts 239°
2026-05-05 21:20 49.07606 1.97332 36863 ft 457 kts 244°
2026-05-05 21:21 49.04993 1.88483 36858 ft 458 kts 244°
2026-05-05 21:21 49.02383 1.79648 36859 ft 458 kts 244°
2026-05-05 21:22 48.99731 1.70820 36864 ft 458 kts 244°
2026-05-05 21:22 48.97072 1.62057 36868 ft 458 kts 244°
2026-05-05 21:23 48.94389 1.53254 36880 ft 458 kts 244°
2026-05-05 21:23 48.91701 1.44464 36883 ft 458 kts 244°
2026-05-05 21:24 48.89009 1.35687 36880 ft 458 kts 244°
2026-05-05 21:24 48.86311 1.26921 36879 ft 458 kts 244°
2026-05-05 21:25 48.83608 1.18172 36883 ft 458 kts 243°
2026-05-05 21:25 48.80900 1.09433 36882 ft 457 kts 244°
2026-05-05 21:26 48.78184 1.00702 36887 ft 457 kts 244°
2026-05-05 21:26 48.75466 0.91991 36883 ft 457 kts 243°
2026-05-05 21:27 48.72483 0.83514 36898 ft 456 kts 238°
2026-05-05 21:27 48.69127 0.75366 36891 ft 456 kts 237°
2026-05-05 21:28 48.65758 0.67248 36893 ft 456 kts 237°
2026-05-05 21:28 48.62418 0.59096 36901 ft 456 kts 237°
2026-05-05 21:29 48.59090 0.50938 36903 ft 456 kts 237°
2026-05-05 21:29 48.55760 0.42792 36903 ft 456 kts 237°
2026-05-05 21:30 48.52425 0.34662 36907 ft 456 kts 237°
2026-05-05 21:30 48.49078 0.26531 36907 ft 456 kts 237°
2026-05-05 21:31 48.45747 0.18462 36911 ft 456 kts 237°
2026-05-05 21:31 48.42385 0.10343 36915 ft 457 kts 237°
2026-05-05 21:32 48.39022 0.02239 36920 ft 457 kts 237°
2026-05-05 21:32 48.35608 -0.05833 36915 ft 457 kts 234°
2026-05-05 21:33 48.31801 -0.13475 36920 ft 457 kts 231°
2026-05-05 21:33 48.27946 -0.21078 36923 ft 457 kts 232°
2026-05-05 21:34 48.23696 -0.28132 36919 ft 456 kts 219°
2026-05-05 21:34 48.18803 -0.34184 36916 ft 456 kts 218°
2026-05-05 21:35 48.14718 -0.39183 36920 ft 456 kts 219°
2026-05-05 21:35 48.09828 -0.45231 36916 ft 456 kts 219°
2026-05-05 21:36 48.04923 -0.51334 36312 ft 462 kts 219°
2026-05-05 21:36 48.01663 -0.55388 35495 ft 460 kts 219°
2026-05-05 21:36 48.00001 -0.57452 35042 ft 460 kts 219°
2026-05-05 21:37 47.97535 -0.60511 34324 ft 462 kts 218°
2026-05-05 21:37 47.95056 -0.63580 33573 ft 464 kts 218°
2026-05-05 21:37 47.92565 -0.66660 32763 ft 465 kts 218°
2026-05-05 21:37 47.90068 -0.69744 31994 ft 466 kts 218°
2026-05-05 21:38 47.87571 -0.72825 31227 ft 467 kts 218°
2026-05-05 21:38 47.85060 -0.75917 30450 ft 469 kts 218°
2026-05-05 21:38 47.82541 -0.79016 29559 ft 471 kts 218°
2026-05-05 21:38 47.80039 -0.82090 28613 ft 473 kts 218°
2026-05-05 21:39 47.77496 -0.85211 27681 ft 475 kts 218°
2026-05-05 21:39 47.74945 -0.88339 26722 ft 476 kts 218°
2026-05-05 21:39 47.72346 -0.91519 25692 ft 479 kts 219°
2026-05-05 21:39 47.69758 -0.94683 24574 ft 485 kts 219°
2026-05-05 21:40 47.67194 -0.97818 23845 ft 482 kts 219°
2026-05-05 21:40 47.64619 -1.00966 23035 ft 478 kts 219°
2026-05-05 21:40 47.62064 -1.04083 22275 ft 472 kts 219°
2026-05-05 21:40 47.59548 -1.07145 21596 ft 465 kts 219°
2026-05-05 21:41 47.56911 -1.09851 20917 ft 458 kts 210°
2026-05-05 21:41 47.54069 -1.11900 20292 ft 451 kts 201°
2026-05-05 21:41 47.51098 -1.13268 19639 ft 444 kts 194°
2026-05-05 21:41 47.48117 -1.14364 18980 ft 439 kts 194°
2026-05-05 21:42 47.45168 -1.15442 18324 ft 434 kts 194°
2026-05-05 21:42 47.42258 -1.16517 17599 ft 430 kts 194°
2026-05-05 21:42 47.39377 -1.17596 16895 ft 424 kts 194°
2026-05-05 21:42 47.36535 -1.18670 16250 ft 419 kts 194°
2026-05-05 21:43 47.33727 -1.19737 15610 ft 414 kts 195°
2026-05-05 21:43 47.30958 -1.20792 14962 ft 409 kts 195°
2026-05-05 21:43 47.28218 -1.21837 14337 ft 404 kts 195°
2026-05-05 21:43 47.25511 -1.22869 13719 ft 400 kts 195°
2026-05-05 21:44 47.22827 -1.23890 13034 ft 397 kts 195°
2026-05-05 21:44 47.20169 -1.24899 12396 ft 392 kts 195°
2026-05-05 21:44 47.17544 -1.25895 11779 ft 387 kts 195°
2026-05-05 21:44 47.14948 -1.26879 11247 ft 382 kts 195°
2026-05-05 21:45 47.12436 -1.27830 11123 ft 365 kts 195°
2026-05-05 21:45 47.10024 -1.28742 10967 ft 351 kts 195°
2026-05-05 21:45 47.07701 -1.29619 10822 ft 338 kts 195°
2026-05-05 21:45 47.05462 -1.30465 10686 ft 327 kts 195°
2026-05-05 21:46 47.03294 -1.31283 10550 ft 316 kts 195°
2026-05-05 21:46 47.01202 -1.32072 10425 ft 306 kts 195°
2026-05-05 21:46 46.99170 -1.32837 10302 ft 297 kts 195°
2026-05-05 21:46 46.97202 -1.33578 10185 ft 287 kts 195°
2026-05-05 21:47 46.95292 -1.34297 10053 ft 279 kts 195°
2026-05-05 21:47 46.93435 -1.34995 9888 ft 274 kts 195°
2026-05-05 21:47 46.91592 -1.35689 9604 ft 273 kts 195°
2026-05-05 21:47 46.89763 -1.36375 9313 ft 271 kts 195°
2026-05-05 21:48 46.87945 -1.37058 9052 ft 268 kts 195°
2026-05-05 21:48 46.86171 -1.37723 8813 ft 265 kts 195°
2026-05-05 21:48 46.84454 -1.38621 8458 ft 261 kts 217°
2026-05-05 21:48 46.83334 -1.40633 7929 ft 257 kts 252°
2026-05-05 21:49 46.83102 -1.43173 7508 ft 252 kts 277°
2026-05-05 21:49 46.83554 -1.45607 7079 ft 248 kts 299°
2026-05-05 21:49 46.84493 -1.47698 6666 ft 246 kts 307°
2026-05-05 21:49 46.85506 -1.49704 6271 ft 244 kts 308°
2026-05-05 21:50 46.86514 -1.51680 5849 ft 243 kts 308°
2026-05-05 21:50 46.87520 -1.53663 5438 ft 242 kts 308°
2026-05-05 21:50 46.88513 -1.55631 5017 ft 241 kts 308°
2026-05-05 21:50 46.89499 -1.57595 4709 ft 235 kts 308°
2026-05-05 21:51 46.90450 -1.59494 4547 ft 228 kts 308°
2026-05-05 21:51 46.91361 -1.61321 4493 ft 216 kts 308°
2026-05-05 21:51 46.92223 -1.63052 4342 ft 205 kts 309°
2026-05-05 21:51 46.93044 -1.64699 4174 ft 196 kts 309°
2026-05-05 21:52 46.94560 -1.67751 3920 ft 175 kts 310°
2026-05-05 21:52 46.95253 -1.69148 3842 ft 167 kts 310°
2026-05-05 21:52 46.95938 -1.70525 3757 ft 169 kts 310°
2026-05-05 21:53 46.96633 -1.71922 3691 ft 170 kts 310°
2026-05-05 21:53 46.97446 -1.73131 3593 ft 164 kts 342°
2026-05-05 21:53 46.98529 -1.73095 3540 ft 160 kts 21°
2026-05-05 21:53 46.99610 -1.72561 3329 ft 164 kts 20°
2026-05-05 21:54 47.00675 -1.71991 3081 ft 161 kts 20°
2026-05-05 21:54 47.01698 -1.71391 2859 ft 155 kts 24°
2026-05-05 21:54 47.02648 -1.70730 2660 ft 151 kts 26°
2026-05-05 21:54 47.03587 -1.70031 2464 ft 151 kts 27°
2026-05-05 21:55 47.04518 -1.69323 2251 ft 150 kts 27°
2026-05-05 21:55 47.05444 -1.68617 2042 ft 150 kts 27°
2026-05-05 21:55 47.06352 -1.67923 1836 ft 144 kts 27°
2026-05-05 21:55 47.07232 -1.67249 1665 ft 144 kts 26°
2026-05-05 21:56 47.08127 -1.66566 1450 ft 142 kts 26°
2026-05-05 21:56 47.08983 -1.65911 1248 ft 136 kts 25°
2026-05-05 21:56 47.09816 -1.65274 1060 ft 136 kts 25°
2026-05-05 21:56 47.10676 -1.64618 880 ft 143 kts 25°
2026-05-05 21:57 47.11569 -1.63936 674 ft 145 kts 26°
2026-05-05 21:57 47.12462 -1.63252 454 ft 145 kts 26°
2026-05-05 21:57 47.13348 -1.62578 282 ft 143 kts 27°
2026-05-05 21:57 47.14220 -1.61909 113 ft 140 kts 26°
2026-05-05 21:58 47.15033 -1.61298 88 ft 107 kts 28°
2026-05-05 21:58 47.15506 -1.60936 87 ft 46 kts 28°
2026-05-05 21:58 47.15644 -1.60823 87 ft 15 kts 41°
2026-05-05 21:58 47.15656 -1.60682 89 ft 15 kts 117°
2026-05-05 21:59 47.15636 -1.60585 89 ft 5 kts 65°
2026-05-05 21:59 47.15672 -1.60536 90 ft 12 kts 30°
2026-05-05 21:59 47.15771 -1.60460 89 ft 18 kts 27°
2026-05-05 21:59 47.15878 -1.60375 88 ft 8 kts 43°
2026-05-05 22:00 47.15885 -1.60354 90 ft 1 kts 89°
2026-05-05 22:00 47.15878 -1.60333 89 ft 3 kts 122°
2026-05-05 22:00 47.15863 -1.60291 90 ft 5 kts 116°
2026-05-05 22:00 47.15861 -1.60285 89 ft 0 kts 117°